This is the latest recevied weather packets stored in our database for station/object G4MDP-13. If no packets are shown the sender has not sent any weather packets the latest 10 day(s).
| Time | Temp. | Humidity | Pressure | Rain* | Wind** | Luminosity | Snow |
|---|---|---|---|---|---|---|---|
| 1778089757 | 13.33° C | 57% | 1006.5 hPa | 0 mm | - | - | - |
| 1778088917 | 13.33° C | 55% | 1006.4 hPa | 0 mm | - | - | - |
| 1778088857 | 13.33° C | 55% | 1006.4 hPa | 0 mm | - | - | - |
| 1778087957 | 13.33° C | 55% | 1006.4 hPa | 0 mm | - | - | - |
| 1778087117 | 13.33° C | 55% | 1012.7 hPa | 0 mm | - | - | - |
| 1778087057 | 13.33° C | 55% | 1012.5 hPa | 0 mm | - | - | - |
| 1778086157 | 13.89° C | 54% | 1006.3 hPa | 0 mm | - | - | - |
| 1778085317 | 13.89° C | 55% | 1006.4 hPa | 0 mm | - | - | - |
| 1778085257 | 13.89° C | 54% | 1006.5 hPa | 0 mm | - | - | - |
| 1778084357 | 13.89° C | 53% | 1006.1 hPa | 0 mm | - | - | - |
| 1778083518 | 13.89° C | 53% | 1006.3 hPa | 0 mm | - | - | - |
| 1778083457 | 13.89° C | 53% | 1006.4 hPa | 0 mm | - | - | - |
| 1778082557 | 14.44° C | 52% | 1006.4 hPa | 0 mm | - | - | - |
| 1778081717 | 14.44° C | 46% | 1006.3 hPa | 0 mm | - | - | - |
| 1778081657 | 14.44° C | 46% | 1006.3 hPa | 0 mm | - | - | - |
| 1778080757 | 14.44° C | 48% | 1006.4 hPa | 0 mm | - | - | - |
| 1778079917 | 15.56° C | 44% | 1006.1 hPa | 0 mm | - | - | - |
| 1778079857 | 15.56° C | 44% | 1006.1 hPa | 0 mm | - | - | - |
| 1778078957 | 14.44° C | 44% | 1006.3 hPa | 0 mm | - | - | - |
| 1778078117 | 15.56° C | 44% | 1006.3 hPa | 0 mm | - | - | - |
| 1778078057 | 15.56° C | 44% | 1006.3 hPa | 0 mm | - | - | - |
| 1778077157 | 15° C | 44% | 1006.1 hPa | 0 mm | - | - | - |
| 1778076317 | 15° C | 44% | 1006.3 hPa | 0 mm | - | - | - |
| 1778076257 | 15.56° C | 44% | 1006.3 hPa | 0 mm | - | - | - |
| 1778075357 | 14.44° C | 45% | 1006.3 hPa | 0 mm | - | - | - |
* Rain latest hour (hover to see other rain measurements)
** Current wind speed in m/s (hover to see current wind gust speed)